Location: Central Falls
(41.8900°N, 71.3929°W)
Time: 03:54:54
(UTC+00:00)

Tiros 1 - Pass Details

Date: 11 December 2023
Orbit: 625 x 658 km, 48.4° (Epoch: 01 March)

Event Time Altitude Azimuth Distance (km) Brightness Sun altitude
Rises 08:28:24 0° 269° (W) 2,971 - -39.0°
Reaches altitude 10° 08:30:50 10° 276° (W) 2,065 - -38.6°
Maximum altitude 08:35:23 43° 348° (NNW) 923 - -37.7°
Exits shadow 08:39:07 15° 56° (NE) 1,772 9.9 -37.0°
Drops below altitude 10° 08:39:58 10° 60° (ENE) 2,075 10.3 -36.9°
Sets 08:42:25 0° 67° (ENE) 2,988 11.4 -36.4°
